Location: Key Biscayne
(25.6930°N, 80.1630°W)
Time: 23:26:26
(UTC-04:00)

CZ-2D R/B - Visible Passes

Search period start: 28 March 2017 00:00
Search period end: 07 April 2017 00:00
Orbit: 525 x 540 km, 97.5° (Epoch: 27 March)

Date Brightness Start Highest point End Pass type
(mag) Time Alt. Az. Time Alt. Az. Time Alt. Az.
28 Mar 4.6 20:18:31 14° ESE 20:20:30 20° ENE 20:23:22 10° NNE visible
28 Mar 5.9 21:53:52 16° WSW 21:54:44 17° W 21:57:20 10° NW visible
29 Mar 5.0 20:08:50 10° ESE 20:11:04 15° ENE 20:13:19 10° NE visible
29 Mar 5.4 21:44:11 21° WSW 21:45:12 23° W 21:48:18 10° NW visible
30 Mar 5.3 20:00:28 10° E 20:01:38 11° ENE 20:02:48 10° NE visible
30 Mar 5.0 21:34:30 26° SW 21:35:40 31° W 21:39:08 10° NW visible
31 Mar 4.3 21:24:48 31° SSW 21:26:08 43° W 21:29:49 10° NNW visible
01 Apr 3.7 21:15:07 34° SSW 21:16:36 60° W 21:20:27 10° NNW visible
02 Apr 3.2 21:05:26 33° S 21:07:06 85° WSW 21:10:59 10° NNW visible
03 Apr 3.1 20:55:44 29° SSE 20:57:35 69° ENE 21:01:28 10° N visible
04 Apr 3.4 20:46:03 24° SE 20:48:05 49° ENE 20:51:51 10° N visible
05 Apr 3.9 20:36:22 19° SE 20:38:36 35° ENE 20:42:10 10° N visible
06 Apr 4.3 20:26:41 14° SE 20:29:09 26° ENE 20:32:25 10° NNE visible
06 Apr 6.2 22:02:02 11° WSW 22:03:28 13° W 22:05:19 10° WNW visible
